Location: Coopersdale
(40.3556°N, 78.9372°W)
Time: 09:27:35
(UTC+00:00)

Envisat - Pass Details

Date: 28 November 2020
Orbit: 764 x 766 km, 98.1° (Epoch: 15 January)

Event Time Altitude Azimuth Distance (km) Brightness Sun altitude
Rises 10:31:54 0° 21° (NNE) 3,241 6.4 -19.6°
Reaches altitude 10° 10:34:24 10° 30° (NNE) 2,310 5.7 -19.1°
Maximum altitude 10:39:05 36° 97° (E) 1,193 4.6 -18.2°
Drops below altitude 10° 10:43:44 10° 164° (SSE) 2,294 5.8 -17.4°
Sets 10:46:11 0° 172° (S) 3,215 6.5 -16.9°
